Flag for U.S.A. Weather past 2 weeks in Downey, California, U.S.A.

Now
59 °F

Low clouds.


Feels Like: 60 °F
Forecast: 57 / 77 °F
Wind: 3 mph from North

Location: Long Beach Airport


UV Index: 5 (Moderate)

Visibility: 7 mi


Pressure: 30.04 "Hg

Humidity: 84%

Dew point: 54 °F

Location of DowneyLocation

Historic Weather in Downey

°F

Downey temperature yesterday

Maximum temperature yesterday: 75 °F (at 4:53 PM)
Minimum temperature yesterday: 58 °F (at 5:53 AM)
Average temperature yesterday: 65 °F

Past Weeks' High & Low Weather Summary

 TemperatureHumidityPressure
High90 °F (Apr 8, 2:53 PM)100% (Apr 10, 9:01 AM)30.10 "Hg (Apr 10, 9:01 AM)
Low51 °F (Apr 10, 4:53 AM)14% (Apr 8, 2:53 PM)29.79 "Hg (Apr 16, 5:53 PM)
Average64 °F59%29.96 "Hg
* Reported Apr 6 6:53 AM — Apr 21 6:53 AM, Downey, Weather by CustomWeather, © 2014

Note: Actual official high and low records may vary slightly from our data, if they occured in-between our weather recording intervals... More about our weather records

Advertising

Historic Weather Conditions — Data for Previous 24 hours

 ConditionsComfort  
Time TempWeatherWind HumidityBarometerVisibility
6:53 AM
Apr 21
59 °FLow clouds.3 mph84%30.04 "Hg7 mi
5:53 AM60 °FLow clouds.3 mph83%30.03 "Hg6 mi
4:53 AM60 °FLow clouds.3 mph83%30.03 "Hg6 mi
3:53 AM58 °FPartly cloudy.3 mph84%30.02 "Hg6 mi
2:53 AM59 °FClear.No wind84%30.02 "Hg7 mi
1:53 AM60 °FClear.No wind80%30.04 "Hg7 mi
12:53 AM61 °FClear.No wind75%30.05 "Hg9 mi
11:53 PM
Apr 20
62 °FClear.No wind75%30.04 "Hg8 mi
10:53 PM63 °FClear.No wind73%30.04 "Hg10 mi
9:53 PM63 °FClear.No wind73%30.04 "Hg9 mi
8:53 PM64 °FClear.5 mph70%30.03 "Hg10 mi
7:53 PM66 °FSunny.5 mph59%30.01 "Hg10 mi
6:53 PM70 °FSunny.9 mph47%29.99 "Hg10 mi
5:53 PM75 °FSunny.7 mph43%29.99 "Hg10 mi
4:53 PM75 °FSunny.6 mph47%30.00 "Hg10 mi
3:53 PM74 °FSunny.7 mph46%30.01 "Hg10 mi
2:53 PM72 °FSunny.8 mph52%30.02 "Hg9 mi
1:53 PM71 °FSunny.9 mph55%30.03 "Hg10 mi
12:53 PM69 °FSunny.7 mph59%30.04 "Hg10 mi
11:53 AM68 °FSunny.8 mph61%30.06 "Hg10 mi
10:53 AM66 °FSunny.5 mph65%30.06 "Hg9 mi
9:53 AM65 °FPassing clouds.No wind68%30.06 "Hg8 mi
8:53 AM63 °FPassing clouds.No wind73%30.06 "Hg8 mi
7:53 AM60 °FScattered clouds.No wind83%30.05 "Hg8 mi
Weather by CustomWeather, © 2014

See weather overview